Stündliche Wetter Caxias do Sul

Heute, 21 Oktober, Mittwoch

Zeit Temperatur Niederschläge Wind Luftdruck Luftfeuchtigkeit
00:00 +16°C° 0 mm 1 m/S 696 mmHg 95%
01:00 +16°C° 0 mm 1 m/S 696 mmHg 94%
02:00 +16°C° 0 mm 1 m/S 696 mmHg 94%
03:00 +16°C° 0 mm 1 m/S 696 mmHg 93%
04:00 +16°C° 0 mm 1 m/S 696 mmHg 93%
05:00 +16°C° 0 mm 1 m/S 697 mmHg 92%
06:00 +15°C° 0 mm 0 m/S 698 mmHg 91%
07:00 +19°C° 0 mm 1 m/S 698 mmHg 84%
08:00 +20°C° 0 mm 1 m/S 699 mmHg 77%
09:00 +21°C° 0 mm 1 m/S 699 mmHg 70%
10:00 +23°C° 0 mm 1 m/S 699 mmHg 63%
11:00 +25°C° 0 mm 2 m/S 699 mmHg 56%
12:00 +27°C° 0 mm 2 m/S 699 mmHg 49%
13:00 +27°C° 0 mm 2 m/S 699 mmHg 52%
14:00 +26°C° 0 mm 3 m/S 699 mmHg 55%
15:00 +26°C° 0 mm 3 m/S 698 mmHg 58%
16:00 +25°C° 0 mm 3 m/S 698 mmHg 63%
17:00 +22°C° 0 mm 3 m/S 698 mmHg 68%
18:00 +21°C° 0 mm 2 m/S 698 mmHg 73%
19:00 +19°C° 0 mm 2 m/S 698 mmHg 79%
20:00 +17°C° 0 mm 2 m/S 698 mmHg 84%
21:00 +16°C° 0 mm 1 m/S 698 mmHg 90%
22:00 +16°C° 0 mm 1 m/S 698 mmHg 90%
23:00 +15°C° 0 mm 1 m/S 698 mmHg 90%

Morgen, 22 Oktober, Donnerstag

Zeit Temperatur Niederschläge Wind Luftdruck Luftfeuchtigkeit
00:00 +15°C° 0 mm 1 m/S 698 mmHg 90%
01:00 +15°C° 0 mm 1 m/S 697 mmHg 91%
02:00 +15°C° 0 mm 1 m/S 697 mmHg 91%
03:00 +14°C° 0 mm 1 m/S 696 mmHg 92%
04:00 +14°C° 0 mm 1 m/S 697 mmHg 93%
05:00 +14°C° 0 mm 1 m/S 697 mmHg 95%
06:00 +14°C° 0 mm 1 m/S 697 mmHg 96%
07:00 +16°C° 0 mm 1 m/S 698 mmHg 84%
08:00 +20°C° 0 mm 1 m/S 698 mmHg 72%
09:00 +23°C° 0 mm 2 m/S 699 mmHg 60%
10:00 +24°C° 0 mm 2 m/S 699 mmHg 56%
11:00 +25°C° 0 mm 2 m/S 699 mmHg 52%
12:00 +26°C° 0 mm 2 m/S 699 mmHg 48%
13:00 +26°C° 0 mm 2 m/S 699 mmHg 49%
14:00 +26°C° 0 mm 2 m/S 698 mmHg 51%
15:00 +26°C° 0 mm 2 m/S 697 mmHg 52%
16:00 +25°C° 0 mm 2 m/S 697 mmHg 56%
17:00 +24°C° 0 mm 2 m/S 697 mmHg 60%
18:00 +23°C° 0 mm 2 m/S 697 mmHg 64%
19:00 +20°C° 0 mm 2 m/S 697 mmHg 69%
20:00 +19°C° 0 mm 2 m/S 697 mmHg 75%
21:00 +17°C° 0 mm 2 m/S 697 mmHg 80%
22:00 +17°C° 0 mm 2 m/S 696 mmHg 80%
23:00 +17°C° 0 mm 2 m/S 696 mmHg 81%

übermorgen, 23 Oktober, Freitag

Zeit Temperatur Niederschläge Wind Luftdruck Luftfeuchtigkeit
00:00 +17°C° 0 mm 2 m/S 696 mmHg 81%
01:00 +17°C° 0 mm 2 m/S 696 mmHg 82%
02:00 +17°C° 0 mm 2 m/S 695 mmHg 83%
03:00 +16°C° 0 mm 1 m/S 695 mmHg 83%
04:00 +16°C° 0 mm 1 m/S 695 mmHg 84%
05:00 +16°C° 0 mm 1 m/S 695 mmHg 84%
06:00 +16°C° 0 mm 1 m/S 696 mmHg 85%
07:00 +18°C° 0 mm 2 m/S 696 mmHg 76%
08:00 +20°C° 0 mm 2 m/S 697 mmHg 67%
09:00 +23°C° 0 mm 2 m/S 697 mmHg 58%
10:00 +25°C° 0 mm 2 m/S 697 mmHg 52%
11:00 +27°C° 0 mm 2 m/S 697 mmHg 46%
12:00 +29°C° 0 mm 1 m/S 696 mmHg 40%
13:00 +29°C° 0 mm 1 m/S 696 mmHg 41%
14:00 +29°C° 0 mm 1 m/S 695 mmHg 42%
15:00 +29°C° 0 mm 1 m/S 694 mmHg 43%
16:00 +27°C° 0 mm 1 m/S 694 mmHg 51%
17:00 +25°C° 0 mm 1 m/S 694 mmHg 60%
18:00 +24°C° 0 mm 1 m/S 693 mmHg 68%
19:00 +22°C° 0 mm 1 m/S 693 mmHg 73%
20:00 +21°C° 0 mm 1 m/S 693 mmHg 77%
21:00 +20°C° 0 mm 1 m/S 693 mmHg 82%
22:00 +19°C° 0 mm 1 m/S 693 mmHg 81%
23:00 +19°C° 0 mm 1 m/S 693 mmHg 80%

24 Oktober, Samstag

Zeit Temperatur Niederschläge Wind Luftdruck Luftfeuchtigkeit
00:00 +18°C° 0 mm 2 m/S 693 mmHg 79%
01:00 +17°C° 0 mm 2 m/S 693 mmHg 78%
02:00 +16°C° 0 mm 2 m/S 693 mmHg 76%
03:00 +16°C° 0 mm 2 m/S 692 mmHg 75%
04:00 +15°C° 0 mm 2 m/S 692 mmHg 75%
05:00 +15°C° 0 mm 2 m/S 692 mmHg 76%
06:00 +15°C° 0 mm 2 m/S 693 mmHg 76%
07:00 +17°C° 0 mm 2 m/S 693 mmHg 66%
08:00 +20°C° 0 mm 2 m/S 694 mmHg 57%
09:00 +23°C° 0 mm 2 m/S 694 mmHg 47%
10:00 +26°C° 0 mm 1 m/S 694 mmHg 42%
11:00 +29°C° 0 mm 1 m/S 694 mmHg 36%
12:00 +31°C° 0 mm 1 m/S 694 mmHg 31%
13:00 +31°C° 0 mm 1 m/S 694 mmHg 30%
14:00 +32°C° 0 mm 1 m/S 693 mmHg 30%
15:00 +32°C° 0 mm 1 m/S 692 mmHg 29%
16:00 +30°C° 0 mm 1 m/S 692 mmHg 38%
17:00 +28°C° 0 mm 1 m/S 691 mmHg 46%
18:00 +25°C° 0 mm 1 m/S 691 mmHg 55%
19:00 +24°C° 0.1 mm 1 m/S 691 mmHg 64%
20:00 +22°C° 0.1 mm 1 m/S 691 mmHg 72%
21:00 +19°C° 0.1 mm 2 m/S 691 mmHg 81%
22:00 +18°C° 0 mm 2 m/S 691 mmHg 82%
23:00 +18°C° 0 mm 2 m/S 691 mmHg 83%

25 Oktober, Sonntag

Zeit Temperatur Niederschläge Wind Luftdruck Luftfeuchtigkeit
00:00 +18°C° 0 mm 2 m/S 691 mmHg 84%
01:00 +17°C° 0 mm 2 m/S 691 mmHg 84%
02:00 +17°C° 0 mm 2 m/S 690 mmHg 84%
03:00 +16°C° 0 mm 2 m/S 690 mmHg 83%
04:00 +16°C° 0 mm 2 m/S 690 mmHg 83%
05:00 +16°C° 0 mm 2 m/S 690 mmHg 83%
06:00 +16°C° 0 mm 2 m/S 691 mmHg 83%
07:00 +19°C° 0 mm 2 m/S 691 mmHg 75%
08:00 +21°C° 0 mm 2 m/S 692 mmHg 66%
09:00 +24°C° 0 mm 3 m/S 692 mmHg 57%
10:00 +26°C° 0 mm 3 m/S 693 mmHg 52%
11:00 +28°C° 0 mm 2 m/S 693 mmHg 46%
12:00 +29°C° 0 mm 2 m/S 693 mmHg 41%
13:00 +29°C° 0.1 mm 2 m/S 692 mmHg 41%
14:00 +29°C° 0.1 mm 2 m/S 692 mmHg 42%
15:00 +29°C° 0.1 mm 2 m/S 691 mmHg 43%
16:00 +28°C° 0 mm 2 m/S 691 mmHg 49%
17:00 +26°C° 0 mm 3 m/S 690 mmHg 54%
18:00 +25°C° 0 mm 3 m/S 690 mmHg 60%
19:00 +24°C° 0 mm 3 m/S 690 mmHg 64%
20:00 +22°C° 0 mm 3 m/S 690 mmHg 69%
21:00 +20°C° 0 mm 3 m/S 691 mmHg 74%
22:00 +20°C° 0 mm 3 m/S 690 mmHg 74%
23:00 +19°C° 0 mm 3 m/S 690 mmHg 74%

26 Oktober, Montag

Zeit Temperatur Niederschläge Wind Luftdruck Luftfeuchtigkeit
00:00 +19°C° 0 mm 3 m/S 690 mmHg 74%
01:00 +18°C° 0 mm 3 m/S 690 mmHg 74%
02:00 +18°C° 0 mm 3 m/S 689 mmHg 74%
03:00 +18°C° 0 mm 3 m/S 689 mmHg 75%
04:00 +18°C° 0 mm 3 m/S 689 mmHg 74%
05:00 +18°C° 0 mm 3 m/S 689 mmHg 74%
06:00 +18°C° 0 mm 3 m/S 689 mmHg 74%
07:00 +19°C° 0 mm 3 m/S 689 mmHg 67%
08:00 +21°C° 0 mm 3 m/S 690 mmHg 60%
09:00 +24°C° 0 mm 3 m/S 690 mmHg 53%
10:00 +25°C° 0 mm 3 m/S 690 mmHg 51%
11:00 +26°C° 0 mm 3 m/S 690 mmHg 48%
12:00 +27°C° 0 mm 3 m/S 690 mmHg 46%
13:00 +26°C° 0.3 mm 3 m/S 689 mmHg 53%
14:00 +25°C° 0.3 mm 2 m/S 688 mmHg 60%
15:00 +25°C° 0.3 mm 2 m/S 688 mmHg 68%
16:00 +24°C° 0.6 mm 1 m/S 687 mmHg 74%
17:00 +22°C° 0.6 mm 1 m/S 687 mmHg 80%
18:00 +21°C° 0.6 mm 1 m/S 686 mmHg 86%
19:00 +20°C° 0.4 mm 1 m/S 686 mmHg 89%
20:00 +20°C° 0.4 mm 1 m/S 686 mmHg 92%
21:00 +19°C° 0.4 mm 1 m/S 686 mmHg 95%
22:00 +18°C° 1.4 mm 2 m/S 686 mmHg 96%
23:00 +18°C° 1.4 mm 2 m/S 686 mmHg 97%

27 Oktober, Dienstag

Zeit Temperatur Niederschläge Wind Luftdruck Luftfeuchtigkeit
00:00 +18°C° 1.4 mm 2 m/S 686 mmHg 97%
01:00 +17°C° 1.2 mm 2 m/S 686 mmHg 97%
02:00 +17°C° 1.2 mm 2 m/S 686 mmHg 97%
03:00 +16°C° 1.2 mm 2 m/S 686 mmHg 97%
04:00 +15°C° 0.1 mm 2 m/S 686 mmHg 97%
05:00 +14°C° 0.1 mm 2 m/S 686 mmHg 97%
06:00 +14°C° 0.1 mm 2 m/S 686 mmHg 97%
07:00 +15°C° 0.1 mm 2 m/S 687 mmHg 90%
08:00 +15°C° 0.1 mm 2 m/S 687 mmHg 83%
09:00 +16°C° 0.1 mm 3 m/S 688 mmHg 76%
10:00 +17°C° 0.2 mm 2 m/S 688 mmHg 76%
11:00 +17°C° 0.2 mm 2 m/S 688 mmHg 75%
12:00 +17°C° 0.2 mm 2 m/S 688 mmHg 74%
13:00 +18°C° 0.1 mm 2 m/S 687 mmHg 67%
14:00 +18°C° 0.1 mm 2 m/S 687 mmHg 61%
15:00 +19°C° 0.1 mm 2 m/S 687 mmHg 54%
16:00 +18°C° 0 mm 2 m/S 687 mmHg 57%
17:00 +18°C° 0 mm 2 m/S 687 mmHg 60%
18:00 +18°C° 0 mm 1 m/S 687 mmHg 64%
19:00 +15°C° 0 mm 1 m/S 687 mmHg 71%
20:00 +12°C° 0 mm 0 m/S 687 mmHg 79%
21:00 +10°C° 0 mm 0 m/S 687 mmHg 87%
22:00 +9°C° 0 mm 0 m/S 687 mmHg 88%
23:00 +9°C° 0 mm 0 m/S 687 mmHg 89%
Mehr zeigen